Location: Lake Almanor
(40.2485°N, 121.1442°W)
Time: 18:59:22
(UTC-08:00)

STARLINK-1084 - Pass Details

Date: 30 January 2020
Orbit: 553 x 556 km, 53.0° (Epoch: 28 February)

Event Time Altitude Azimuth Distance (km) Brightness Sun altitude
Rises 18:11:43 0° 313° (NW) 2,736 7.7 -10.1°
Reaches altitude 10° 18:14:04 10° 321° (NW) 1,840 6.6 -10.5°
Maximum altitude 18:18:01 39° 31° (NNE) 837 4.2 -11.3°
Enters shadow 18:20:58 16° 95° (E) 1,485 5.2 -11.8°
